FALCON 9 DEB (48490 NORAD) Tracking and Keplerian Element Data

This shows tracking and keplerian element data for the satellite.

Feedback or suggestion? Click here.




ElementValue
Catalog48490
NameFALCON 9 DEB
Epoch Orbit495
Epoch Day159.94680661
Epoch Year2021
RAAN63.6449
Inclination53.0346
Eccentricity0.0012825
Argument of Perigee275.2497
Mean Anonmoly84.7089
Mean Motion16.48520931
Decay Rate0.11576119
L11 48490U 21040BQ 21159.94680661 .11576119 12619-4 14778-3 0 9994
L22 48490 53.0346 63.6449 0012825 275.2497 84.7089 16.48520931 4957

Live tracking and technical data element details for FALCON 9 DEB (NORAD 48490). FALCON 9 DEB can be tracked NOW for your location showing map with azimuth and elevation plus other details from your city location.

Track the satellite on the map from your city or location and see movement details for azimuth, elevation, latitude, longitude, range, height, and movement on the map or in text.







IsCatalogInMostPopularTable: catalog: 48490, numindb: 24
Update: records affected: 1



GetName: 48490 FALCON 9 DEB

Hit Count: updated at: Tue, 03 Aug 2021 20:43:42 GMT